Regional Weather Roundup
Issued by NWS

Home | Current Version | Previous Version | Graphics & Text | Print | Product List | Glossary On
Versions: 1 2 3 4 5 6 7 8 9 10 11 12 13 14 15 16 17 18 19 20 21 22 23 24 25 26 27 28 29 30 31 32 33 34 35 36 37 38 39 40 41 42 43 44 45 46 47 48 49 50
000
ASUS43 KLMK 050510
RWRKY
KENTUCKY REGIONAL WEATHER ROUNDUP
NATIONAL WEATHER SERVICE LOUISVILLE KY
1200 AM EST THU MAR 05 2015

NOTE "FAIR" INDICATES FEW OR NO CLOUDS BELOW 12,000 FEET
WITH NO SIGNIFICANT WEATHER AND/OR OBSTRUCTIONS TO VISIBILITY.

KYZ001>023-026-027-061>063-070>075-050600-
WESTERN AND SOUTH CENTRAL KENTUCKY

CITY           SKY/WX    TMP DP  RH WIND       PRES   REMARKS
PADUCAH        FOG       19  15  84 N17       30.32R VSB 3/4 WCI   4
HENDERSON      CLOUDY    19  12  73 N6        30.31F WCI  11
OWENSBORO      LGT SNOW  19  16  88 N5        30.29R VSB 1   WCI  12
HOPKINSVILLE   LGT SNOW  20  18  90 N13       30.23R FOG     WCI   8
BOWLING GREEN  SNOW      24  21  88 N9        30.21R VSB 1/2 WCI  14
GLASGOW        LGT SNOW  28  28 100 N8        30.17S WCI  20
$$

KYZ024-025-028>034-038-045-046-053-050600-
NORTH CENTRAL KENTUCKY

CITY           SKY/WX    TMP DP  RH WIND       PRES   REMARKS
LOUISVILLE/SDF HVY SNOW  23  20  88 N15       30.23S VSB 1/4 WCI  10
LOUISVILLE/LOU SNOW      22  20  92 N10       30.24F VSB 1/2 WCI  11
FORT KNOX      SNOW      22  20  90 N10       30.22R VSB 1/2 WCI  11
$$

KYZ035>037-039>044-047>052-055>060-089>105-050600-
NORTHEAST KENTUCKY

CITY           SKY/WX    TMP DP  RH WIND       PRES   REMARKS
LEXINGTON      FOG       25  23  92 N16       30.16S VSB 3/4 WCI  12
COVINGTON      LGT SNOW  22  15  75 N15G22    30.22R VSB 1   WCI   9
FRANKFORT      LGT SNOW  24  21  88 N9        30.17R VSB 3/4 WCI  14
$$

KYZ054-064>069-076>088-106>120-050600-
SOUTHEAST KENTUCKY

CITY           SKY/WX    TMP DP  RH WIND       PRES   REMARKS
JACKSON        LGT RAIN  33  31  92 VRB5      30.08R FOG     WCI  29
LONDON         LGT RAIN  35  31  85 N10       30.09R FOG     WCI  27
SOMERSET       MIX PCPN  32  32 100 N12G17    30.13S WCI  23
MIDDLESBORO    LGT RAIN  38  36  91 N3        30.05R
MONTICELLO     LGT SNOW  34  33  96 N13       30.14S FOG     WCI  25
$$




USA.gov is the U.S. government's official web portal to all federal, state and local government web resources and services.